TimeCDT,TemperatureF,Dew PointF,Humidity,Sea Level PressureIn,VisibilityMPH,Wind Direction,Wind SpeedMPH,Gust SpeedMPH,PrecipitationIn,Events,Conditions,WindDirDegrees,DateUTC
12:29 AM,56.7,42.8,60,29.86,10.0,Calm,Calm,-,N/A,,Clear,0,2012-10-01 05:29:00
12:49 AM,55.4,42.6,62,29.86,10.0,South,3.5,-,N/A,,Clear,170,2012-10-01 05:49:00
1:09 AM,54.5,42.3,63,29.86,10.0,Calm,Calm,-,N/A,,Clear,0,2012-10-01 06:09:00
1:29 AM,50.9,42.1,72,29.86,10.0,Calm,Calm,-,N/A,,Clear,0,2012-10-01 06:29:00
1:49 AM,51.1,41.9,71,29.85,10.0,Calm,Calm,-,N/A,,Clear,0,2012-10-01 06:49:00
2:09 AM,49.3,41.4,74,29.86,10.0,Calm,Calm,-,N/A,,Clear,0,2012-10-01 07:09:00
2:28 AM,49.8,42.1,75,29.86,10.0,Calm,Calm,-,N/A,,Clear,0,2012-10-01 07:28:00
2:49 AM,50.2,42.4,75,29.86,10.0,Calm,Calm,-,N/A,,Scattered Clouds,0,2012-10-01 07:49:00
3:09 AM,54.1,42.6,65,29.85,10.0,WNW,4.6,-,N/A,,Clear,290,2012-10-01 08:09:00
3:29 AM,54.1,42.8,66,29.85,10.0,WNW,6.9,-,N/A,,Clear,290,2012-10-01 08:29:00
4:09 AM,56.7,46.0,68,29.86,10.0,WNW,5.8,-,N/A,,Scattered Clouds,300,2012-10-01 09:09:00
4:49 AM,59.4,49.3,69,29.87,10.0,NW,10.4,-,N/A,,Overcast,310,2012-10-01 09:49:00
5:09 AM,61.5,50.5,67,29.88,10.0,NW,13.8,-,N/A,,Mostly Cloudy,310,2012-10-01 10:09:00
5:29 AM,60.3,50.2,69,29.89,10.0,NW,12.7,-,N/A,,Mostly Cloudy,320,2012-10-01 10:29:00
5:49 AM,59.4,50.0,71,29.89,10.0,NW,10.4,18.4,N/A,,Scattered Clouds,320,2012-10-01 10:49:00
6:08 AM,59.2,50.4,73,29.90,10.0,NW,9.2,-,N/A,,Clear,310,2012-10-01 11:08:00
6:29 AM,59.2,50.4,73,29.91,10.0,WNW,10.4,-,N/A,,Clear,300,2012-10-01 11:29:00
7:08 AM,59.2,50.5,73,29.91,10.0,NNW,10.4,-,N/A,,Scattered Clouds,330,2012-10-01 12:08:00
7:29 AM,59.7,49.6,69,29.92,10.0,NW,10.4,-,N/A,,Mostly Cloudy,320,2012-10-01 12:29:00
8:08 AM,60.4,49.5,67,29.93,10.0,NW,9.2,12.7,N/A,,Mostly Cloudy,310,2012-10-01 13:08:00
8:29 AM,60.4,49.8,68,29.94,10.0,NW,16.1,21.9,N/A,,Mostly Cloudy,310,2012-10-01 13:29:00
8:48 AM,60.4,49.1,66,29.94,10.0,NW,15.0,19.6,N/A,,Mostly Cloudy,320,2012-10-01 13:48:00
9:09 AM,59.9,48.2,65,29.95,10.0,NW,11.5,-,N/A,,Overcast,320,2012-10-01 14:09:00
9:28 AM,59.9,47.7,64,29.96,10.0,NW,11.5,17.3,N/A,,Overcast,320,2012-10-01 14:28:00
10:09 AM,61.5,46.6,58,29.96,10.0,NNW,15.0,23.0,N/A,,Scattered Clouds,330,2012-10-01 15:09:00
10:29 AM,61.7,45.3,55,29.96,10.0,NNW,18.4,26.5,N/A,,Clear,330,2012-10-01 15:29:00
10:49 AM,61.7,45.0,54,29.97,10.0,NNW,13.8,24.2,N/A,,Clear,330,2012-10-01 15:49:00
11:09 AM,62.2,45.7,55,29.97,10.0,NW,17.3,21.9,N/A,,Clear,320,2012-10-01 16:09:00
11:29 AM,62.4,45.1,53,29.97,10.0,NNW,17.3,26.5,N/A,,Clear,330,2012-10-01 16:29:00
12:08 PM,69.3,45.5,42,29.96,10.0,NNW,15.0,20.7,N/A,,Clear,340,2012-10-01 17:08:00
12:29 PM,69.3,42.8,38,29.96,10.0,NW,17.3,24.2,N/A,,Clear,320,2012-10-01 17:29:00
12:49 PM,69.3,41.4,36,29.96,10.0,NNW,17.3,27.6,N/A,,Clear,330,2012-10-01 17:49:00
1:08 PM,69.3,41.9,37,29.96,10.0,NNW,20.7,26.5,N/A,,Clear,340,2012-10-01 18:08:00
1:29 PM,70.7,42.3,36,29.94,10.0,NNW,16.1,24.2,N/A,,Clear,340,2012-10-01 18:29:00
1:49 PM,70.3,41.9,36,29.94,10.0,NNW,20.7,27.6,N/A,,Clear,330,2012-10-01 18:49:00
2:09 PM,70.7,43.9,38,29.93,10.0,NW,21.9,-,N/A,,Clear,310,2012-10-01 19:09:00
2:28 PM,70.2,44.4,40,29.94,10.0,NNW,18.4,26.5,N/A,,Clear,340,2012-10-01 19:28:00
2:49 PM,70.3,43.7,38,29.94,10.0,NNW,18.4,27.6,N/A,,Scattered Clouds,340,2012-10-01 19:49:00
3:09 PM,71.8,44.4,37,29.94,10.0,NNW,21.9,-,N/A,,Scattered Clouds,340,2012-10-01 20:09:00
3:28 PM,71.6,44.6,38,29.93,10.0,NW,17.3,24.2,N/A,,Clear,310,2012-10-01 20:28:00
3:49 PM,71.6,45.1,39,29.93,10.0,NNW,17.3,24.2,N/A,,Clear,340,2012-10-01 20:49:00
4:09 PM,71.4,45.1,39,29.93,10.0,NW,16.1,21.9,N/A,,Clear,320,2012-10-01 21:09:00
4:28 PM,69.3,43.7,40,29.94,10.0,NNW,19.6,25.3,N/A,,Clear,330,2012-10-01 21:28:00
5:08 PM,69.3,42.6,38,-9999,10.0,NNW,16.1,25.3,N/A,,Clear,330,2012-10-01 22:08:00
5:27 PM,69.3,41.5,37,29.94,10.0,North,10.4,24.2,N/A,,Clear,350,2012-10-01 22:27:00
5:49 PM,69.3,41.2,36,29.94,10.0,North,12.7,21.9,N/A,,Clear,350,2012-10-01 22:49:00
6:08 PM,69.3,42.4,38,29.94,10.0,NNW,12.7,18.4,N/A,,Clear,330,2012-10-01 23:08:00
6:29 PM,65.1,40.6,41,29.95,10.0,NNW,9.2,-,N/A,,Clear,330,2012-10-01 23:29:00
6:48 PM,61.7,40.3,45,29.95,10.0,NW,6.9,-,N/A,,Clear,320,2012-10-01 23:48:00
7:08 PM,59.2,40.6,50,29.96,10.0,NW,8.1,-,N/A,,Clear,320,2012-10-02 00:08:00
7:29 PM,57.2,39.6,52,29.96,10.0,NW,6.9,-,N/A,,Clear,310,2012-10-02 00:29:00
7:49 PM,56.7,39.6,53,29.96,10.0,NW,5.8,-,N/A,,Clear,310,2012-10-02 00:49:00
8:08 PM,54.1,37.9,54,29.96,10.0,NW,5.8,-,N/A,,Clear,310,2012-10-02 01:08:00
8:29 PM,54.1,38.8,56,29.97,10.0,NW,4.6,-,N/A,,Clear,310,2012-10-02 01:29:00
8:48 PM,53.1,39.4,60,29.97,10.0,NW,5.8,-,N/A,,Clear,320,2012-10-02 01:48:00
9:09 PM,50.4,37.9,62,29.97,10.0,NW,8.1,-,N/A,,Clear,320,2012-10-02 02:09:00
9:29 PM,51.8,39.2,62,29.98,10.0,NW,9.2,-,N/A,,Clear,320,2012-10-02 02:29:00
9:49 PM,51.8,38.3,60,29.98,10.0,NW,6.9,-,N/A,,Clear,310,2012-10-02 02:49:00
10:08 PM,51.8,37.6,58,29.98,10.0,NW,8.1,-,N/A,,Clear,310,2012-10-02 03:08:00
10:29 PM,50.4,37.4,61,29.97,10.0,NW,6.9,-,N/A,,Clear,310,2012-10-02 03:29:00
11:09 PM,49.1,38.1,66,29.97,10.0,NW,6.9,-,N/A,,Clear,310,2012-10-02 04:09:00
11:28 PM,47.8,38.1,69,29.98,10.0,NW,4.6,-,N/A,,Clear,310,2012-10-02 04:28:00
11:49 PM,44.1,36.0,73,29.98,10.0,NW,5.8,-,N/A,,Clear,310,2012-10-02 04:49:00